Terug naar catalogus

COSMOS 1818 COOLANT

ActiefLEO
NORAD 36941·DEBRIS·🇷🇺 Russia

Gelanceerd Feb 1, 1987 vanaf Baikonur Cosmodrome

Loading…

Volgende Passages (komende 24 uur)

TLE

VerouderdSource: Space-Track

Epoch: Aug 30, 2026, 11:04 UTC

1 36941U 87011V   26242.46164042  .00000572  00000-0  20969-3 0  9996
2 36941  65.0025 307.9398 0020415 280.0408  79.8378 14.40831434354259

Volg COSMOS 1818 COOLANT in realtime met AllMySat

Download on the App Store